Location: Boiro
(42.6475°N, 8.8834°W)
Time: 22:31:58
(UTC+01:00)

A-11 Canister half - Pass Details

Date: 06 December 2021
Orbit: 1516 x 1684 km, 47.2° (Epoch: 18 January)

Event Time Altitude Azimuth Distance (km) Brightness Sun altitude
Rises 07:23:36 0° 222° (SW) 4,714 11.3 -15.6°
Reaches altitude 10° 07:26:40 10° 218° (SW) 3,752 10.8 -15.0°
Maximum altitude 07:35:56 58° 142° (SE) 1,827 9.7 -13.4°
Drops below altitude 10° 07:45:34 10° 67° (ENE) 3,894 11.8 -11.7°
Sets 07:48:49 0° 64° (ENE) 4,902 12.3 -11.2°
